Tracking 25703 objects as of 3-Jul-2022
HD Live streaming from Space Station
objects crossing your sky now

STARLINK-2592

Track STARLINK-2592 now!
10-day predictions
STARLINK-2592 is classified as:


NORAD ID: 48408
Int'l Code: 2021-038BH
Perigee: 553.6 km
Apogee: 555.1 km
Inclination: 53.1 °
Period: 95.6 minutes
Semi major axis: 6925 km
RCS: Unknown
Launch date: May 4, 2021
Source: United States (US)
Launch site: AIR FORCE EASTERN TEST RANGE (AFETR)
aabbcc
Your satellite tracking list
Your tracking list is empty




NASA's NSSDC Master Catalog

Two Line Element Set (TLE):
1 48408U 21038BH  22183.53955693  .00001763  00000-0  13722-3 0  9994
2 48408  53.0561 264.7298 0001127  83.6919 276.4198 15.06400952 64998
Source of the keplerian elements: AFSPC